When you browse on this site, cookies collect data to enhance your experience and personalize the content and advertising you see.
Visit our Privacy Policy to learn more. By continuing to use the site, you agree to this use of cookies and data.
  • In United Kingdom
  • List of Countries
  • For 7 days
  • Water Temperature
  • Satellite Maps
  • Weather Map
  • Weather Widgets
  • user-avatar
    Login

    Hourly Weather Bregenz

    Today, 24 July, Wednesday

    Time Temperature Precipitation Wind Pressure Humidity
    00:00 +16°C° 0 mm 1 mps 651 mmHg 81%
    01:00 +16°C° 0 mm 1 mps 651 mmHg 80%
    02:00 +16°C° 0 mm 1 mps 651 mmHg 81%
    03:00 +15°C° 0 mm 1 mps 650 mmHg 81%
    04:00 +15°C° 0 mm 1 mps 650 mmHg 82%
    05:00 +16°C° 0 mm 1 mps 651 mmHg 80%
    06:00 +19°C° 0 mm 1 mps 651 mmHg 77%
    07:00 +20°C° 0 mm 1 mps 651 mmHg 75%
    08:00 +22°C° 0 mm 1 mps 652 mmHg 68%
    09:00 +24°C° 0 mm 1 mps 652 mmHg 61%
    10:00 +26°C° 0 mm 1 mps 653 mmHg 54%
    11:00 +26°C° 0 mm 1 mps 653 mmHg 51%
    12:00 +27°C° 0 mm 1 mps 653 mmHg 48%
    13:00 +28°C° 0 mm 2 mps 653 mmHg 45%
    14:00 +28°C° 0 mm 1 mps 653 mmHg 45%
    15:00 +28°C° 0 mm 1 mps 653 mmHg 45%
    16:00 +28°C° 0 mm 1 mps 653 mmHg 46%
    17:00 +26°C° 0 mm 1 mps 652 mmHg 53%
    18:00 +24°C° 0 mm 1 mps 652 mmHg 61%
    19:00 +21°C° 0 mm 0 mps 651 mmHg 69%
    20:00 +22°C° 0 mm 1 mps 651 mmHg 70%
    21:00 +20°C° 0 mm 1 mps 651 mmHg 70%
    22:00 +19°C° 0 mm 1 mps 651 mmHg 70%
    23:00 +19°C° 0 mm 1 mps 651 mmHg 70%

    Tomorrow, 25 July, Thursday

    Time Temperature Precipitation Wind Pressure Humidity
    00:00 +18°C° 0 mm 1 mps 651 mmHg 70%
    01:00 +18°C° 0 mm 1 mps 651 mmHg 70%
    02:00 +16°C° 0 mm 1 mps 650 mmHg 70%
    03:00 +16°C° 0 mm 1 mps 650 mmHg 71%
    04:00 +16°C° 0 mm 1 mps 650 mmHg 72%
    05:00 +18°C° 0 mm 1 mps 650 mmHg 71%
    06:00 +19°C° 0 mm 1 mps 651 mmHg 70%
    07:00 +20°C° 0 mm 1 mps 651 mmHg 70%
    08:00 +22°C° 0 mm 1 mps 651 mmHg 63%
    09:00 +24°C° 0 mm 1 mps 652 mmHg 56%
    10:00 +26°C° 0 mm 1 mps 653 mmHg 50%
    11:00 +27°C° 0 mm 1 mps 653 mmHg 48%
    12:00 +27°C° 0 mm 1 mps 652 mmHg 45%
    13:00 +28°C° 0 mm 2 mps 652 mmHg 43%
    14:00 +28°C° 0 mm 2 mps 652 mmHg 46%
    15:00 +28°C° 0 mm 2 mps 652 mmHg 48%
    16:00 +28°C° 0 mm 3 mps 652 mmHg 50%
    17:00 +26°C° 0.1 mm 2 mps 651 mmHg 60%
    18:00 +24°C° 0.1 mm 1 mps 651 mmHg 71%
    19:00 +22°C° 0.1 mm 1 mps 650 mmHg 81%
    20:00 +21°C° 0.1 mm 1 mps 650 mmHg 83%
    21:00 +20°C° 0.1 mm 1 mps 650 mmHg 85%
    22:00 +19°C° 0.1 mm 1 mps 650 mmHg 87%
    23:00 +18°C° 0 mm 1 mps 649 mmHg 86%

    Day after tomorrow, 26 July, Friday

    Time Temperature Precipitation Wind Pressure Humidity
    00:00 +18°C° 0 mm 1 mps 649 mmHg 86%
    01:00 +18°C° 0 mm 1 mps 649 mmHg 85%
    02:00 +16°C° 0.1 mm 1 mps 648 mmHg 86%
    03:00 +16°C° 0.1 mm 1 mps 648 mmHg 86%
    04:00 +15°C° 0.1 mm 1 mps 648 mmHg 87%
    05:00 +16°C° 0.2 mm 1 mps 648 mmHg 87%
    06:00 +18°C° 0.2 mm 1 mps 648 mmHg 86%
    07:00 +19°C° 0.2 mm 1 mps 648 mmHg 86%
    08:00 +21°C° 0 mm 1 mps 648 mmHg 78%
    09:00 +22°C° 0 mm 1 mps 649 mmHg 70%
    10:00 +24°C° 0 mm 1 mps 649 mmHg 63%
    11:00 +25°C° 0 mm 1 mps 649 mmHg 60%
    12:00 +25°C° 0 mm 1 mps 649 mmHg 58%
    13:00 +26°C° 0 mm 2 mps 649 mmHg 55%
    14:00 +25°C° 0.2 mm 1 mps 648 mmHg 58%
    15:00 +25°C° 0.2 mm 1 mps 648 mmHg 60%
    16:00 +25°C° 0.2 mm 1 mps 648 mmHg 63%
    17:00 +23°C° 0.3 mm 1 mps 647 mmHg 70%
    18:00 +22°C° 0.3 mm 1 mps 647 mmHg 78%
    19:00 +20°C° 0.3 mm 1 mps 646 mmHg 85%
    20:00 +19°C° 0 mm 1 mps 646 mmHg 86%
    21:00 +18°C° 0 mm 1 mps 645 mmHg 86%
    22:00 +16°C° 0 mm 1 mps 644 mmHg 87%
    23:00 +15°C° 0 mm 1 mps 644 mmHg 86%

    27 July, Saturday

    Time Temperature Precipitation Wind Pressure Humidity
    00:00 +15°C° 0 mm 1 mps 643 mmHg 85%
    01:00 +14°C° 0 mm 2 mps 643 mmHg 85%
    02:00 +14°C° 0.2 mm 2 mps 643 mmHg 84%
    03:00 +14°C° 0.2 mm 1 mps 642 mmHg 84%
    04:00 +13°C° 0.2 mm 1 mps 642 mmHg 84%
    05:00 +14°C° 0.6 mm 1 mps 642 mmHg 85%
    06:00 +15°C° 0.6 mm 1 mps 642 mmHg 85%
    07:00 +16°C° 0.6 mm 1 mps 642 mmHg 86%
    08:00 +18°C° 0.3 mm 1 mps 643 mmHg 81%
    09:00 +19°C° 0.3 mm 1 mps 643 mmHg 77%
    10:00 +20°C° 0.3 mm 1 mps 643 mmHg 73%
    11:00 +21°C° 0.8 mm 1 mps 643 mmHg 75%
    12:00 +21°C° 0.8 mm 1 mps 643 mmHg 77%
    13:00 +21°C° 0.8 mm 1 mps 642 mmHg 79%
    14:00 +20°C° 1 mm 1 mps 642 mmHg 81%
    15:00 +20°C° 1 mm 1 mps 642 mmHg 83%
    16:00 +18°C° 1 mm 0 mps 641 mmHg 85%
    17:00 +19°C° 0.7 mm 1 mps 641 mmHg 87%
    18:00 +18°C° 0.7 mm 1 mps 641 mmHg 88%
    19:00 +16°C° 0.7 mm 1 mps 641 mmHg 89%
    20:00 +15°C° 0.2 mm 1 mps 641 mmHg 90%
    21:00 +14°C° 0.2 mm 1 mps 640 mmHg 91%
    22:00 +13°C° 0.2 mm 2 mps 640 mmHg 92%
    23:00 +13°C° 0.1 mm 2 mps 640 mmHg 93%

    28 July, Sunday

    Time Temperature Precipitation Wind Pressure Humidity
    00:00 +12°C° 0.1 mm 2 mps 640 mmHg 94%
    01:00 +12°C° 0.1 mm 1 mps 640 mmHg 96%
    02:00 +12°C° 0.2 mm 1 mps 640 mmHg 96%
    03:00 +12°C° 0.2 mm 1 mps 640 mmHg 95%
    04:00 +12°C° 0.2 mm 1 mps 640 mmHg 95%
    05:00 +12°C° 0.2 mm 1 mps 640 mmHg 95%
    06:00 +12°C° 0.2 mm 1 mps 640 mmHg 95%
    07:00 +12°C° 0.2 mm 1 mps 641 mmHg 95%
    08:00 +12°C° 0.3 mm 1 mps 641 mmHg 94%
    09:00 +13°C° 0.3 mm 2 mps 641 mmHg 94%
    10:00 +13°C° 0.3 mm 2 mps 642 mmHg 93%
    11:00 +13°C° 0.4 mm 2 mps 642 mmHg 94%
    12:00 +12°C° 0.4 mm 2 mps 642 mmHg 95%
    13:00 +12°C° 0.4 mm 2 mps 642 mmHg 95%
    14:00 +12°C° 0.2 mm 2 mps 642 mmHg 95%
    15:00 +12°C° 0.2 mm 2 mps 642 mmHg 95%
    16:00 +10°C° 0.2 mm 2 mps 642 mmHg 95%
    17:00 +11°C° 0.1 mm 1 mps 643 mmHg 96%
    18:00 +11°C° 0.1 mm 1 mps 643 mmHg 96%
    19:00 +11°C° 0.1 mm 1 mps 643 mmHg 96%
    20:00 +11°C° 0.1 mm 1 mps 643 mmHg 96%
    21:00 +11°C° 0.1 mm 1 mps 644 mmHg 96%
    22:00 +11°C° 0.1 mm 1 mps 644 mmHg 96%
    23:00 +11°C° 0 mm 1 mps 644 mmHg 96%

    29 July, Monday

    Time Temperature Precipitation Wind Pressure Humidity
    00:00 +11°C° 0 mm 1 mps 644 mmHg 96%
    01:00 +11°C° 0 mm 1 mps 644 mmHg 96%
    02:00 +10°C° 0 mm 1 mps 644 mmHg 96%
    03:00 +10°C° 0 mm 1 mps 644 mmHg 96%
    04:00 +10°C° 0 mm 1 mps 644 mmHg 96%
    05:00 +11°C° 0 mm 1 mps 645 mmHg 96%
    06:00 +10°C° 0 mm 0 mps 645 mmHg 95%
    07:00 +10°C° 0 mm 0 mps 645 mmHg 95%
    08:00 +11°C° 0 mm 0 mps 645 mmHg 93%
    09:00 +12°C° 0 mm 1 mps 646 mmHg 90%
    10:00 +13°C° 0 mm 1 mps 646 mmHg 88%
    11:00 +14°C° 0 mm 1 mps 646 mmHg 83%
    12:00 +15°C° 0 mm 1 mps 647 mmHg 78%
    13:00 +18°C° 0 mm 1 mps 647 mmHg 74%
    14:00 +18°C° 0 mm 1 mps 647 mmHg 74%
    15:00 +18°C° 0 mm 1 mps 647 mmHg 74%
    16:00 +18°C° 0 mm 1 mps 647 mmHg 74%
    17:00 +18°C° 0 mm 1 mps 647 mmHg 78%
    18:00 +18°C° 0 mm 1 mps 647 mmHg 82%
    19:00 +16°C° 0 mm 1 mps 647 mmHg 86%
    20:00 +15°C° 0 mm 1 mps 647 mmHg 88%
    21:00 +14°C° 0 mm 1 mps 647 mmHg 91%
    22:00 +13°C° 0 mm 1 mps 647 mmHg 93%
    23:00 +12°C° 0 mm 1 mps 647 mmHg 93%
    Show more